User: anonymous   Login
Location: Unspecified
(0.0000°N, 0.0000°E)
Time: 11:51:41
(UTC+00:00)
Language:

Nova 3 - Orbit

View from above orbital plane
View from above orbital plane
View from above satellite
View from above satellite

Ground track
Ground track

The orbit data is extracted from the following two-line orbital elements,

1 15362U 84110A   18347.75299788  .00000003  00000-0 -13114-4 0  9997
2 15362  90.0617  57.5462 0032443 170.5775 303.1365 13.22761758649337
Epoch (UTC): 13 December 2018 18:04:19
Eccentricity: 0.0032443
inclination: 90.0617°
perigee height: 1149 km
apogee height: 1198 km
right ascension of ascending node: 57.5462°
argument of perigee: 170.5775°
revolutions per day: 13.22761758
mean anomaly at epoch: 303.1365°
orbit number at epoch: 64933

The dashed part of the orbit path shows where the satellite is in the earth's shadow,  

DLR